Location: Bollstadt
(48.7546°N, 10.5040°E)
Time: 12:28:38
(UTC+00:00)

Daily predictions for brighter satellites

Satellite Brightness Start Highest point End
(mag) Time Altitude Azimuth Time Altitude Azimuth Time Altitude Azimuth
MOS 1 Rocket 3.9 19:02:31 10° N 19:07:59 77° WNW 19:13:15 10° SSW
Cosmos 1140 Rocket 3.7 19:04:39 10° S 19:09:42 52° ESE 19:14:48 10° NNE
USA 276 2.4 19:07:28 10° W 19:10:38 67° N 19:13:48 10° E
Cosmos 1818 4.4 19:06:00 10° NW 19:11:15 49° WSW 19:16:27 10° SSE
MetOp-A 4.2 19:06:57 10° SSE 19:12:18 87° ENE 19:17:42 10° NNW
X-37B 1.2 19:11:51 10° WSW 19:14:52 41° S 19:17:53 10° ESE
Cosmos 2360 Rocket 4.2 19:11:36 10° N 19:15:13 17° NE 19:18:49 10° ENE
ATLAS 5 CENTAUR R/B 4.0 19:11:13 10° WNW 19:16:18 31° WSW 19:22:00 10° S
Cosmos 921 Rocket 3.8 19:13:05 10° N 19:16:58 33° ENE 19:20:46 10° SE
FALCON 9 DEB 3.1 19:15:25 10° WSW 19:18:54 78° SSE 19:22:25 10° ENE
Cosmos 1707 Rocket 3.5 19:14:51 10° N 19:19:13 73° E 19:23:31 10° SSE
USA 186 3.5 19:21:10 10° SSW 19:22:59 21° W 19:24:48 10° NW
Genesis I 3.4 19:19:34 10° NW 19:23:27 72° SW 19:27:19 10° SSE
OBJECT-B 0.8 19:21:37 10° SSE 19:24:54 87° E 19:28:14 10° NNW
Cosmos 1980 Rocket 2.2 19:19:23 10° NNW 19:25:07 81° ENE 19:30:46 10° SSE
CZ-2C R/B 3.8 19:24:02 10° NNE 19:28:34 56° E 19:33:00 10° S
Intercosmos 25 3.4 19:25:49 10° NNW 19:29:50 71° W 19:33:01 10° S
Cosmos 1470 Rocket 4.3 19:29:18 10° SSE 19:33:13 33° E 19:37:08 10° NNE
Cosmos 1833 Rocket 3.0 19:31:20 10° SW 19:36:56 72° WNW 19:42:35 10° NNE
NOSS 3-2 (A) 3.5 19:31:37 10° SSW 19:37:04 50° ESE 19:43:17 10° NE
Meteor 1-4 Rocket 2.4 19:34:09 10° N 19:37:38 86° E 19:41:05 10° SSE
Cosmos 1184 Rocket 3.2 19:34:38 10° SSE 19:37:46 42° E 19:40:55 10° NNE
SJ-6B 4.3 19:34:02 10° SSW 19:37:48 38° W 19:41:31 10° NNW
Cosmos 1697 Rocket 3.6 19:32:56 10° NW 19:38:19 47° WSW 19:43:38 10° S
Sich 1 3.4 19:35:05 10° SSW 19:39:31 71° W 19:43:58 10° N
USA 267 3.8 19:33:56 10° ENE 19:39:46 33° SE 19:45:33 10° SSW
H-2A R/B 4.4 19:38:19 10° SW 19:42:13 22° W 19:46:04 10° NW
SPOT 5 4.3 19:40:40 12° ESE 19:43:25 20° ENE 19:46:39 10° NNE
Cosmos 405 Rocket 3.6 19:42:21 14° SE 19:44:55 28° E 19:48:09 10° NNE
SL-27 R/B 4.3 19:46:33 13° E 19:46:33 13° E 19:47:53 10° ENE
NOSS 3-2 (C) 3.8 19:41:21 10° S 19:46:31 37° ESE 19:52:18 10° NE
Cosmos 1862 Rocket 3.6 19:42:11 10° N 19:46:39 70° ENE 19:50:56 11° SSE
Cosmos 1812 4.5 19:44:26 10° NNW 19:47:53 32° W 19:51:19 10° SSW
Cosmos 1437 Rocket 4.0 19:44:46 10° NNE 19:47:58 25° ENE 19:49:58 16° ESE
SPOT 1/Viking Rocket 4.2 19:45:04 14° SE 19:49:12 42° ENE 19:54:07 10° N
Cosmos 1934 Rocket 4.0 19:44:25 10° S 19:50:47 78° E 19:57:10 10° NNE
Cosmos 2333 Rocket 4.4 19:49:02 10° N 19:52:25 16° NNE 19:55:46 10° ENE
Landsat 7 4.1 19:48:45 14° SE 19:52:35 51° ENE 19:57:13 10° N
Resurs 01 Rocket 1.7 19:48:14 10° SSE 19:52:39 81° WSW 19:57:07 10° NNW
USA 32 4.2 19:48:36 10° SSE 19:53:41 56° E 19:58:49 10° NNE
Cosmos 676 Rocket 4.0 19:53:25 10° SSW 19:58:44 83° ESE 20:04:07 10° NNE
ERS-1 Rocket 3.8 19:56:13 17° ESE 19:59:29 35° ENE 20:04:01 10° N
GP-B 3.1 19:56:29 10° N 20:00:55 65° E 20:04:54 13° S
Okean 1 3.6 19:59:46 10° N 20:03:44 49° ENE 20:06:08 21° SE
Cosmos 841 Rocket 4.4 19:59:27 10° N 20:04:15 35° ENE 20:07:29 18° ESE
Meteor 1-19 Rocket 4.4 19:59:15 10° N 20:04:33 52° ENE 20:08:20 19° SE
SPOT 3 Rocket 4.5 20:03:35 10° S 20:08:34 46° W 20:13:35 10° NNW
CARTOSAT-1 4.3 20:06:55 21° ESE 20:09:13 37° ENE 20:13:13 10° N
BREEZE-M DEB (TANK) 1.5 20:08:34 10° W 20:11:10 79° N 20:11:50 36° E
Cosmos 468 Rocket 4.0 20:06:32 10° NNW 20:11:53 77° ENE 20:15:29 21° SSE
Cosmos 1867 3.9 20:06:48 10° SW 20:12:14 72° NW 20:17:43 10° NE
Cosmos 1933 Rocket 3.6 20:10:14 14° S 20:13:52 60° E 20:18:16 10° NNE
USA 234 3.5 20:10:46 14° ESE 20:16:23 67° NNE 20:22:52 10° NW
SL-4 R/B 2.2 20:12:39 10° W 20:16:35 62° NNW 20:20:15 10° ENE
ATLAS 3B R/B 3.6 20:14:38 20° SE 20:17:00 24° ESE 20:22:08 10° ENE
IGS 5A 3.4 20:15:47 21° SSE 20:18:34 88° ENE 20:22:44 10° NNW
Meteor 2-4 Rocket 4.1 20:15:56 10° N 20:21:22 45° ENE 20:24:18 24° SE
Cosmos 1869 Rocket 4.4 20:23:53 27° ESE 20:25:12 32° E 20:29:12 10° NNE
Iridium 4 Rocket 4.3 20:25:27 22° E 20:26:13 23° E 20:29:34 10° NNE
MetOp-B 4.5 20:22:39 14° S 20:27:18 65° WSW 20:32:40 10° NNW
Meteor 1-14 Rocket 4.4 20:23:18 16° S 20:28:02 60° E 20:33:55 10° NNE
Spot 2 Rocket 3.6 20:25:35 19° S 20:29:17 79° WSW 20:34:25 10° NNW
SL-16 R/B 2.2 20:25:16 10° NNW 20:30:59 81° ENE 20:34:14 27° SSE
CZ-4B DEB 4.5 20:30:11 41° SE 20:31:06 59° ENE 20:34:24 10° N
Cosmos 2219 Rocket 4.0 20:26:56 10° N 20:31:14 21° NE 20:35:05 12° E
Cosmos 1741 Rocket 4.0 20:27:56 10° S 20:33:07 64° ESE 20:38:22 10° NNE
Okean 1-7 3.0 20:29:48 10° N 20:34:08 70° E 20:35:59 33° SSE
Cosmos 1703 Rocket 3.4 20:30:51 10° N 20:35:13 80° ENE 20:37:16 31° SSE
USA 238 DEB 3.8 20:29:33 10° SW 20:36:13 81° NW 20:43:13 10° NE
USA 238 3.7 20:29:40 10° SW 20:36:19 82° NW 20:43:19 10° NE
ATLAS 5 CENTAUR R/B 2.8 20:34:45 10° NNW 20:37:08 35° NE 20:39:34 21° E
Cosmos 1570 Rocket 4.1 20:34:52 10° NNW 20:40:11 65° ENE 20:42:42 31° SE
Meteor 1-18 Rocket 4.3 20:34:44 10° NNW 20:40:19 76° W 20:44:01 22° S
Cosmos 2082 Rocket 3.5 20:35:56 10° WSW 20:41:18 42° NW 20:46:43 10° NNE
Terra 2.2 20:40:06 32° SE 20:42:00 51° ENE 20:46:37 10° N
Lacrosse 5 2.2 20:38:32 10° WNW 20:43:29 55° SW 20:45:36 32° SSE
Cosmos 1238 Rocket 3.3 20:44:11 18° SW 20:46:01 39° WNW 20:48:52 10° N
CENTAUR R/B 2.4 20:40:42 10° SSW 20:46:39 80° SE 20:53:49 10° NE
USA 276 2.0 20:43:51 10° WNW 20:47:00 68° SSW 20:47:07 67° S
Cosmos 1605 Rocket 4.3 20:41:16 10° SSW 20:47:20 64° WNW 20:53:24 10° N
Cosmos 2100 Rocket 4.0 20:45:27 27° SSE 20:48:46 58° E 20:54:47 10° NNE
Cosmos 2208 Rocket 4.1 20:43:43 10° NNW 20:48:58 64° ENE 20:51:06 35° SE
Cosmos 1763 Rocket 3.8 20:44:20 10° NNW 20:49:36 63° WSW 20:52:27 27° S
Cosmos 2322 Rocket 2.2 20:44:01 10° NNW 20:49:45 89° WSW 20:52:29 33° SSE
X-37B 2.0 20:48:19 10° WSW 20:50:24 27° SW 20:50:24 27° SW
Cosmos 2173 Rocket 4.0 20:52:59 29° SSE 20:56:07 61° E 21:02:09 10° NNE
FALCON 9 DEB 4.3 20:52:46 10° W 20:56:08 42° N 20:58:46 15° ENE
Cosmos 1733 Rocket 4.4 20:57:31 24° E 20:57:31 24° E 21:00:53 10° NE
Cosmos 2237 4.3 20:51:53 10° NNW 20:57:36 68° ENE 20:59:59 36° SE
Cosmos 2084 Rocket 3.3 20:54:26 10° SW 20:58:38 87° SE 21:02:58 10° NE
Cosmos 1500 3.0 20:59:53 61° SE 21:00:19 69° E 21:04:04 10° NNE
Cosmos 2360 Rocket 2.3 20:54:43 10° NNW 21:00:23 65° ENE 21:02:39 36° SE
Cosmos 44 3.5 21:00:01 10° NW 21:04:54 68° SW 21:06:35 41° SSE
Cosmos 1725 Rocket 4.5 21:04:43 34° SE 21:06:42 43° E 21:12:37 10° NNE
Cosmos 1980 Rocket 4.4 21:04:42 10° WNW 21:08:24 18° W 21:12:04 10° SW
SAR-Lupe-2 3.5 21:06:03 10° NNE 21:09:40 84° WNW 21:10:12 63° SSW
Cosmos 1666 3.4 21:11:57 37° ENE 21:11:57 37° ENE 21:14:57 10° NNE
Cosmos 1459 Rocket 3.9 21:08:09 30° S 21:11:32 78° E 21:17:55 10° NNE
Cosmos 2016 Rocket 4.1 21:13:22 37° SSE 21:15:47 60° E 21:22:03 10° NNE
Cosmos 1242 Rocket 3.6 21:13:31 10° N 21:16:36 34° ENE 21:16:36 34° ENE
COSMOS 2428 3.8 21:14:12 10° NNW 21:19:29 36° NE 21:21:52 26° E
Cosmos 44 Rocket 4.5 21:15:35 10° NNW 21:20:11 36° NE 21:22:15 26° E
Cosmos 2221 Rocket 3.5 21:16:20 10° N 21:20:50 74° E 21:21:32 60° SE
SL-27 R/B 3.4 21:20:03 33° WSW 21:21:01 43° WNW 21:24:13 10° N
Cosmos 2346 Rocket 4.4 21:15:01 10° N 21:21:06 74° E 21:23:12 42° SSE
SPOT 5 3.1 21:19:54 38° SSW 21:21:11 51° W 21:25:31 10° NNW
USA 267 3.2 21:16:41 10° NE 21:23:16 88° NW 21:29:49 10° WSW
Cosmos 1437 Rocket 4.3 21:20:56 10° NNW 21:24:11 27° W 21:25:21 23° WSW
Cosmos 540 Rocket 3.8 21:23:10 10° NNW 21:28:15 56° WSW 21:29:45 41° SSW
Lacrosse 4 Rocket 2.6 21:29:56 29° ENE 21:29:56 29° ENE 21:32:22 10° NE
Cosmos 2237 Rocket 4.1 21:24:52 10° N 21:29:07 21° NE 21:32:28 13° E
ERBS 4.1 21:26:39 10° NW 21:29:30 26° NNE 21:30:18 23° NE
Cosmos 1378 Rocket 4.4 21:29:02 10° N 21:33:12 37° ENE 21:33:20 37° ENE
Cosmos 1271 Rocket 4.0 21:32:28 10° N 21:35:26 29° ENE 21:35:26 29° ENE
NOSS 3-2 (C) 4.1 21:31:22 10° WSW 21:37:08 55° NW 21:43:49 10° NE
Cosmos 2333 Rocket 2.6 21:32:22 10° NNW 21:38:03 55° NE 21:39:44 41° ESE
ERS-1 Rocket 4.1 21:36:12 25° SW 21:38:15 35° W 21:42:53 10° NNW
Cosmos 2061 Rocket 3.9 21:37:27 42° S 21:39:46 86° E 21:46:00 10° N
Meteor 1-11 Rocket 3.6 21:42:34 48° S 21:44:16 87° E 21:50:06 10° NNE
Cosmos 841 Rocket 4.4 21:41:20 10° NW 21:46:11 39° WSW 21:47:34 33° SW
Cosmos 1066 Rocket 4.1 21:40:56 10° N 21:46:39 80° ENE 21:47:48 57° SSE
Cosmos 2233 Rocket 4.2 21:45:58 47° SE 21:47:20 56° E 21:53:31 10° NNE
Cosmos 1802 Rocket 4.2 21:45:24 32° SSW 21:48:29 72° W 21:54:51 10° N
Okean 3 4.3 21:48:22 10° NNW 21:52:26 43° W 21:52:58 41° WSW
COSMOS 2487 3.8 21:55:26 33° NNE 21:55:26 33° NNE 21:57:28 10° NNE
SL-4 R/B 2.5 21:52:44 10° WNW 21:55:57 51° NNW 21:55:57 51° NNW
Thor Agena Rocket 3.8 21:53:22 10° NNE 21:58:13 49° E 21:58:13 49° E
USA 234 3.5 21:58:07 44° S 21:59:33 52° SW 22:05:55 10° WNW
Spot 4 3.7 22:03:39 73° ESE 22:03:56 76° ENE 22:08:46 10° NNW
Iridium 4 Rocket 4.3 22:05:13 31° WSW 22:06:04 33° W 22:09:52 10° NNW
ATLAS 3B R/B 2.6 22:01:43 17° SW 22:06:58 81° NW 22:13:41 10° NE
Cosmos 2227 Rocket 4.4 22:09:36 11° E 22:09:36 11° E 22:10:37 10° ENE
Cosmos 1536 3.5 22:12:10 50° WNW 22:12:10 50° WNW 22:15:55 10° N
Meteor 1-23 Rocket 4.4 22:06:59 10° NNW 22:12:47 70° W 22:13:53 56° SSW
SL-16 R/B 4.1 22:10:41 10° WNW 22:14:22 18° W 22:16:06 16° WSW
Cosmos 2219 Rocket 2.0 22:10:17 10° NNW 22:16:01 89° ENE 22:16:47 69° SSE
Cosmos 1674 Rocket 3.8 22:14:05 10° NNW 22:18:08 61° WNW 22:18:08 61° WNW
NOSS 0 Rocket 4.3 22:12:41 10° NNW 22:18:52 58° NE 22:20:36 44° ESE
Terra 3.5 22:19:00 21° WSW 22:20:01 22° W 22:23:45 10° NW
Cosmos 2322 3.8 22:17:29 10° NW 22:23:04 59° WSW 22:23:34 57° SW
Cosmos 1842 4.4 22:20:34 10° N 22:23:29 39° NE 22:23:29 39° NE
EO 1 Del DPAF 4.4 22:21:13 10° NNE 22:23:43 39° NNE 22:23:43 39° NNE
Lacrosse 5 4.3 22:24:11 10° WSW 22:24:47 11° WSW 22:24:47 11° WSW
Tsikada Rocket 4.4 22:20:29 10° NNW 22:26:38 54° W 22:28:15 43° SW
MOS 1-B Rocket 4.0 22:22:51 10° N 22:28:27 68° WNW 22:29:54 49° SW
Cosmos 1503 Rocket 4.1 22:29:01 62° E 22:29:01 62° E 22:34:08 10° NNE
Okean 2 4.0 22:28:25 10° N 22:31:45 53° NNE 22:31:45 53° NNE
Cosmos 2322 Rocket 4.2 22:29:42 10° WNW 22:32:59 16° W 22:34:18 15° WSW
Geosat 4.0 22:33:13 66° WSW 22:33:13 66° WSW 22:38:13 10° NW
Meteor 2-11 Rocket 4.3 22:32:28 66° S 22:33:23 85° E 22:39:32 10° N
Cosmos 1486 Rocket 4.0 22:33:50 65° WSW 22:34:26 72° WNW 22:39:40 10° NNE
ALOS 2 2.8 22:35:05 68° NNE 22:35:05 68° NNE 22:39:02 10° N
Cosmos 489 Rocket 4.4 22:28:29 10° NNW 22:34:47 71° WSW 22:35:44 61° SSW
Cosmos 1733 Rocket 4.1 22:34:35 37° W 22:34:57 38° WNW 22:39:06 10° N
CENTAUR R/B 4.1 22:32:12 10° W 22:38:07 37° NNW 22:45:01 10° NE
Cosmos 1975 3.8 22:43:45 43° NNE 22:43:45 43° NNE 22:46:36 10° NNE
SL-16 R/B 3.9 22:38:27 10° NNW 22:43:16 27° NE 22:46:19 18° E
Cosmos 2360 Rocket 3.7 22:39:31 10° NW 22:43:53 23° WSW 22:44:24 23° WSW
Meteor 1-21 4.2 22:41:31 10° N 22:47:21 75° ENE 22:47:53 69° ESE
SL-24 DEB 4.4 22:49:34 10° N 22:53:57 71° NE 22:53:57 71° NE
Cosmos 773 Rocket 4.0 22:49:36 10° NNW 22:54:46 71° ENE 22:54:49 71° ENE
Cosmos 968 Rocket 3.9 22:58:03 49° W 22:58:45 53° WNW 23:03:48 10° NNE
Helios 1A 3.7 22:59:36 50° NE 22:59:36 50° NE 23:03:07 10° N
Cosmos 1782 Rocket 4.0 23:00:31 58° N 23:00:31 58° N 23:04:03 10° N
Cosmos 2297 Rocket 3.1 23:02:01 35° E 23:02:01 35° E 23:06:33 10° NE
Cosmos 44 Rocket 4.1 22:57:04 10° NW 23:00:56 42° W 23:00:56 42° W
Cosmos 1743 4.2 23:03:24 32° NW 23:03:24 32° NW 23:06:21 10° N
Meteor 2-9 Rocket 4.0 23:03:15 80° SSE 23:03:34 85° E 23:09:21 10° NNE
COSMOS 2428 3.2 22:58:27 10° NW 23:03:51 47° WSW 23:03:51 47° WSW
Cosmos 1980 3.6 23:00:01 10° NNW 23:05:45 84° ENE 23:06:08 77° ESE
Cosmos 1538 Rocket 4.2 23:00:50 10° NNW 23:05:57 58° ENE 23:06:16 57° E
USA 267 4.1 22:59:44 10° ENE 23:05:59 49° NNW 23:12:11 10° W
Lacrosse 4 Rocket 3.1 23:06:12 26° WNW 23:07:12 29° NW 23:10:53 10° NNE
Cosmos 1908 Rocket 4.4 23:07:34 43° WNW 23:07:34 43° WNW 23:11:24 10° N
Cosmos 1607 4.5 23:04:28 10° NW 23:10:49 56° NE 23:13:36 33° ESE
Cosmos 2219 3.6 23:13:13 50° E 23:13:13 50° E 23:18:15 10° NE
Cosmos 2237 Rocket 2.0 23:08:19 10° NNW 23:14:01 89° ENE 23:14:16 83° SE
Cosmos 2333 Rocket 3.4 23:17:09 10° NW 23:21:43 28° W 23:21:43 28° W
Timation 2 Rocket 3.7 23:26:06 74° SSW 23:26:44 88° ESE 23:32:46 10° NNE
Meteor 1-12 Rocket 4.3 23:28:45 66° SE 23:29:15 70° E 23:35:15 10° NNE
Cosmos 1975 Rocket 4.1 23:26:54 10° NNW 23:30:20 38° WNW 23:30:20 38° WNW
Cosmos 1300 Rocket 4.1 23:34:20 54° NNE 23:34:20 54° NNE 23:37:45 10° NNE
Cosmos 1674 4.4 23:30:35 10° N 23:33:07 29° NE 23:33:07 29° NE
Cosmos 1634 Rocket 4.5 23:35:14 44° ESE 23:36:11 47° E 23:42:05 10° NNE
Cosmos 1464 Rocket 4.2 23:39:31 52° WSW 23:40:32 58° WNW 23:46:40 10° N
Helios 1B rocket 3.6 23:42:03 10° NNE 23:45:01 38° ENE 23:45:01 38° ENE
Cosmos 1680 Rocket 4.3 23:41:06 10° NNW 23:46:08 45° ENE 23:47:20 39° E
CZ-2D R/B 4.0 23:43:18 10° NE 23:47:10 19° E 23:48:16 18° ESE
Cosmos 1707 4.2 23:44:51 10° NNW 23:47:18 34° NW 23:47:18 34° NW
Okean 2 Rocket 3.5 23:50:15 61° NNW 23:50:15 61° NNW 23:54:10 10° N
Okean 1 Rocket 4.1 23:51:41 38° ENE 23:51:41 38° ENE 23:55:14 10° NNE
Nadezhda 4 Rocket 4.1 23:45:11 10° NNW 23:51:21 59° W 23:52:00 56° WSW
Cosmos 2227 Rocket 2.1 23:51:25 73° SE 23:51:35 73° ESE 23:57:15 10° NNE
Cosmos 1777 Rocket 3.9 23:52:43 77° W 23:52:51 77° WNW 23:58:11 10° NNE
Cosmos 1025 Rocket 3.8 23:50:06 10° NNW 23:53:18 46° NW 23:53:18 46° NW
SJ 16-02 2.6 23:55:08 32° E 23:55:08 32° E 23:58:22 10° NE
